Dewpoint
30 29 28 28 28 28 28 28 28 28 26 26 26 26 26 27 29 30 30 29 29 28 30 29 29 31 31 33 33 33 33 34 33 38 42 45 46 46 48 61 60 59 56
29 28 28 27 27 27 27 26 28 28 27 26 27 25 25 27 29 30 28 29 29 27 29 28 28 31 31 33 32 32 32 34 34 37 41 42 45 43 48 59 59 60 59
28 27 27 26 26 26 26 26 27 27 28 27 27 21 25 26 28 30 28 28 27 26 28 28 29 30 31 32 32 31 31 34 36 37 38 39 42 42 45 51 58 59 59
26 25 25 25 25 26 26 26 26 26 26 24 26 23 22 25 27 29 27 27 26 25 27 28 29 30 31 32 32 31 31 32 33 34 35 35 36 39 41 44 50 53 58
23 24 23 25 25 26 24 25 25 26 25 22 26 23 22 23 26 28 26 26 25 23 25 26 29 31 31 32 32 31 30 31 31 31 32 32 32 33 34 38 44 48 53
22 22 23 24 24 25 23 24 24 24 24 23 24 23 22 22 26 27 28 26 25 23 23 25 26 30 30 31 33 34 32 29 30 30 30 29 31 32 34 37 41 47 51
21 21 23 23 23 24 23 24 24 23 23 24 24 22 22 23 25 25 26 25 25 24 24 24 25 27 30 30 31 32 33 33 32 32 30 30 30 31 33 36 39 43 41
21 21 22 23 23 23 24 23 23 23 23 23 23 23 21 23 25 24 24 25 24 24 24 24 25 26 29 29 28 29 31 32 33 33 32 32 33 34 35 37 38 41 43
20 21 23 24 23 23 23 23 23 23 23 23 24 22 20 22 24 25 22 23 23 23 24 24 24 25 27 26 27 26 27 29 32 34 34 34 34 34 34 35 36 40 37
20 20 22 23 24 23 24 24 24 24 24 24 22 22 21 20 23 23 22 24 23 23 24 24 25 24 26 26 25 26 25 28 30 29 31 32 33 34 34 33 33 33 34
22 22 22 23 24 25 24 25 24 25 24 22 23 21 19 20 20 21 22 23 24 23 23 24 24 24 24 25 25 25 26 27 28 28 28 29 31 33 33 34 33 32 32
23 23 21 21 22 23 22 22 23 23 23 21 21 21 19 19 20 21 21 23 25 23 23 24 24 24 23 24 24 24 25 25 25 25 26 27 28 30 32 34 34 34 34
22 22 22 22 23 20 17 18 20 20 21 22 18 19 18 19 20 21 21 22 23 23 24 23 23 22 22 22 23 23 23 24 24 23 24 25 27 28 30 32 32 33 34
23 24 22 18 19 22 15 14 14 16 17 20 20 15 17 18 20 22 21 20 22 22 22 22 21 21 21 21 21 22 22 23 24 23 23 24 24 24 25 27 28 29 30
23 21 21 17 14 17 18 12 14 18 16 16 18 17 17 17 21 24 21 21 21 20 20 20 20 20 19 19 19 21 21 22 22 23 22 22 22 21 21 23 24 26 26
21 22 24 20 15 14 17 19 19 18 17 17 18 18 19 21 23 24 20 20 19 19 18 18 19 19 19 19 19 19 20 21 21 22 22 20 20 20 19 20 21 22 23
22 23 24 25 24 23 22 21 20 20 18 17 18 19 20 21 23 23 21 19 19 17 17 18 18 19 18 19 18 18 19 20 20 20 21 20 20 18 18 18 18 19 20
22 21 22 23 22 25 26 26 24 24 23 21 17 17 18 20 22 22 20 19 17 17 17 17 17 18 18 18 19 18 18 19 19 19 20 20 19 19 18 16 17 18 19
21 20 24 24 25 25 25 24 24 24 22 21 19 18 17 19 22 20 20 18 18 17 17 17 18 18 18 18 18 19 18 18 19 19 19 19 19 18 17 17 15 16 17
25 26 26 25 24 24 24 24 24 22 21 19 17 16 20 20 18 17 18 17 18 18 17 17 18 18 18 18 18 17 17 17 18 19 18 18 19 18 17 16 17 14 15
27 28 27 24 24 24 24 22 22 21 21 20 16 13 17 19 18 18 19 17 16 18 18 17 18 18 18 17 16 16 15 15 16 18 18 17 17 17 17 16 16 15 14
27 28 28 25 24 25 24 24 23 23 22 21 13 8 15 20 19 20 20 18 16 18 18 17 16 18 18 16 14 13 14 13 14 15 17 17 17 17 16 17 15 16 14
27 27 27 28 25 26 25 25 23 23 21 20 18 10 16 20 19 20 20 18 19 17 18 16 15 15 17 16 15 13 11 13 14 15 16 15 16 16 16 15 16 14 14
29 27 26 27 27 26 25 25 23 23 22 20 20 19 19 21 19 20 20 19 19 18 17 15 14 14 15 14 14 13 11 11 12 13 16 15 14 14 16 14 15 13 13
32 29 26 26 28 26 25 24 24 23 23 22 21 20 21 21 21 20 20 20 19 18 18 17 15 13 11 13 12 12 9 9 10 11 15 16 14 12 13 15 14 14 13
33 31 28 27 27 26 25 25 24 24 23 23 23 23 23 23 22 22 20 20 18 18 18 15 16 15 14 14 14 11 9 9 8 10 13 16 14 13 12 13 14 13 12
Wind_Speed
15 14 12 11 12 12 13 14 8 10 11 13 14 18 20 20 22 20 19 20 21 22 22 23 24 21 20 18 16 14 13 11 8 5 6 16 15 20 23 24 28 31 30
15 14 11 11 12 13 13 15 13 8 9 10 14 17 18 19 21 20 21 20 21 23 22 23 24 22 22 20 17 17 16 13 6 10 12 19 16 20 17 25 22 22 25
15 12 9 10 10 12 12 13 15 14 9 12 16 20 17 20 21 20 19 21 22 23 22 22 23 24 23 21 22 20 18 16 15 12 7 16 5 12 7 15 17 16 16
14 10 9 9 10 10 12 12 15 15 16 16 14 19 16 19 20 19 20 20 22 22 22 21 22 24 25 24 23 23 20 18 17 12 20 12 6 8 10 9 17 11 13
13 9 9 8 10 11 13 13 14 15 16 16 13 19 20 19 21 20 18 20 21 25 23 24 23 29 30 29 22 26 23 19 17 14 19 15 15 11 16 10 7 3 6
11 10 10 11 11 12 13 12 12 14 15 16 15 18 22 20 30 29 16 19 20 24 27 26 24 28 27 29 28 24 27 23 21 19 18 19 18 11 10 11 10 6 8
13 11 11 12 12 12 12 13 13 13 14 16 16 17 20 24 31 29 27 19 20 21 23 26 25 25 27 23 23 24 24 29 22 19 21 23 16 17 12 8 7 11 8
13 12 11 12 13 11 12 13 14 13 13 16 17 14 19 23 29 27 23 17 19 21 23 24 26 28 29 26 21 22 24 22 24 21 24 22 21 21 15 7 2 7 8
12 12 11 11 11 11 12 12 12 14 14 16 14 18 18 20 28 27 20 18 20 21 21 23 26 28 33 31 24 24 25 25 22 26 28 27 27 30 26 12 20 7 9
12 11 9 10 10 11 13 11 13 13 15 13 17 16 21 18 26 28 22 14 19 19 20 21 30 30 32 32 26 24 24 24 22 25 26 26 27 28 30 27 18 19 8
12 11 9 9 12 13 15 14 14 15 16 18 16 16 18 19 19 27 28 19 16 18 19 20 22 30 33 30 28 23 22 18 22 22 23 24 25 26 25 23 22 19 18
14 12 10 12 11 14 16 15 16 16 16 15 15 14 15 16 20 22 26 25 19 17 19 18 20 26 30 32 26 30 28 23 21 25 25 27 25 25 23 21 20 22 19
15 12 12 14 14 14 15 14 14 14 13 13 13 13 13 14 15 21 21 22 21 17 17 20 22 25 26 25 32 30 26 24 24 28 27 24 21 19 20 22 22 20 26
15 13 14 16 16 14 13 12 13 13 12 12 12 14 12 12 13 15 16 15 16 16 16 17 19 20 22 21 24 25 23 23 23 22 21 19 18 22 23 21 22 22 23
16 13 15 13 14 14 13 12 11 10 10 10 9 9 13 16 15 17 16 15 15 16 13 16 20 21 23 23 22 23 23 23 25 21 22 21 22 22 22 21 21 22 26
15 14 14 15 13 13 14 12 10 9 10 10 10 9 8 12 16 17 18 21 19 16 16 19 20 19 21 21 21 21 22 23 21 20 21 22 21 22 21 22 21 24 24
16 15 13 15 14 14 11 11 10 3 5 4 7 8 11 14 18 19 18 17 19 15 19 17 18 18 18 17 18 19 20 19 18 21 21 21 20 21 23 23 22 21 23
17 16 13 13 13 13 12 11 10 9 5 3 1 2 6 9 15 17 15 12 15 17 16 16 16 15 15 15 16 17 16 17 19 19 19 19 19 20 21 21 22 21 19
19 15 14 13 13 15 13 11 10 8 6 7 3 1 1 5 12 15 14 14 14 14 13 14 13 13 14 14 14 14 15 16 16 17 18 18 18 18 20 19 18 20 19
16 20 18 17 17 15 13 12 11 9 8 11 7 4 3 5 9 11 13 13 13 12 11 12 11 12 12 12 12 13 13 15 15 15 15 17 15 16 17 18 18 19 18
18 18 18 15 16 15 15 14 11 10 9 9 6 3 4 6 10 9 9 10 11 11 12 11 12 11 11 11 11 11 13 13 13 13 12 14 16 15 15 15 15 16 16
18 18 16 16 15 15 14 13 13 11 10 11 8 6 3 1 9 9 7 5 9 10 9 10 10 11 11 11 10 10 11 13 13 14 13 12 12 13 12 12 13 14 16
18 19 17 15 16 15 14 13 14 13 12 12 12 10 8 5 8 11 9 5 7 7 7 8 8 7 8 10 9 8 9 8 9 9 12 13 12 13 12 11 11 12 13
18 19 19 17 17 17 16 15 16 15 14 14 15 15 13 11 10 10 10 8 7 7 6 6 7 6 5 7 7 6 5 5 6 6 8 10 11 11 10 11 10 12 12
18 19 19 20 19 20 19 18 17 17 16 16 16 14 14 14 13 13 12 12 10 10 9 7 8 7 6 5 5 4 4 3 4 5 7 7 9 10 9 8 9 7 10
18 20 18 18 19 20 20 20 19 17 19 18 18 17 16 16 16 16 15 16 15 14 13 12 11 11 10 8 8 7 5 3 1 1 2 2 5 5 6 7 7 5 8
Wind_Direction
82 68 48 37 30 28 31 24 56 65 36 22 14 20 14 4 0 357 6 5 1 4 1 5 358 352 351 354 1 359 1 4 1 322 353 27 28 14 325 167 155 171 170
88 71 52 43 32 30 29 25 25 61 43 27 21 22 19 6 1 3 9 4 9 6 4 8 1 356 359 7 6 6 4 3 333 4 13 30 32 3 307 122 143 166 173
89 75 53 50 37 33 25 30 24 30 37 23 39 27 21 8 4 3 12 15 17 7 7 9 1 0 6 9 14 15 7 4 8 30 39 31 6 6 342 60 104 135 157
88 77 59 58 42 38 29 35 33 33 42 31 50 29 21 12 9 5 19 19 22 8 10 12 7 10 14 12 20 18 14 18 20 28 55 37 8 346 20 48 85 76 142
87 77 64 64 48 44 41 40 37 43 48 35 57 31 21 19 16 10 27 22 25 17 12 14 14 20 21 18 23 27 26 25 27 34 51 44 31 13 13 341 89 111 94
90 78 69 64 52 51 41 36 40 46 50 47 58 39 27 22 18 20 30 29 23 21 17 12 17 17 15 16 20 31 36 33 30 38 43 37 19 13 352 1 44 91 104
90 76 72 67 57 50 39 39 35 41 52 52 54 48 32 26 23 22 21 27 23 20 20 17 17 18 17 17 20 28 33 33 31 38 45 35 15 0 340 10 32 77 68
94 78 71 73 63 47 42 40 37 34 56 52 52 56 39 27 26 24 20 23 21 20 21 26 21 20 21 22 24 30 32 29 29 37 44 36 24 17 3 335 312 104 108
97 87 75 78 74 53 41 41 42 38 51 55 59 51 40 28 26 28 25 27 24 21 17 24 31 24 21 24 27 29 33 26 28 37 42 35 32 33 31 37 36 59 59
107 104 94 88 83 70 46 49 49 48 51 60 57 51 42 29 27 30 30 25 31 24 21 20 30 31 29 28 31 28 31 20 23 31 35 34 33 34 36 40 35 55 56
119 102 78 104 86 78 59 45 49 48 51 48 55 50 37 29 23 30 29 28 31 30 27 23 26 29 32 32 34 33 32 27 31 39 38 36 33 33 32 36 40 45 54
123 116 102 83 81 76 67 52 45 48 48 46 44 44 34 20 22 21 24 26 33 35 30 25 26 31 31 31 33 33 32 36 36 41 39 34 29 26 21 20 36 48 50
132 133 117 90 80 79 70 62 58 51 51 41 43 39 32 14 7 6 13 22 33 36 32 35 34 35 32 30 30 32 34 34 33 38 33 28 27 22 28 30 30 37 45
138 132 120 107 91 84 75 69 67 55 53 44 41 40 31 20 12 4 8 17 31 37 31 33 35 39 39 36 32 31 32 33 35 37 36 29 28 30 31 29 36 36 44
151 145 134 121 114 99 78 79 80 63 63 60 48 46 33 28 13 11 29 42 41 40 41 45 40 36 36 34 33 30 30 31 32 31 36 33 34 36 31 29 37 41 47
149 147 142 142 129 121 115 99 81 88 76 68 62 57 26 26 22 31 48 51 49 45 47 47 45 40 39 33 33 31 30 31 30 30 34 33 34 37 36 34 35 43 44
160 153 151 141 155 150 147 137 125 85 68 66 60 51 43 36 31 36 48 52 53 53 56 49 44 40 39 37 36 33 32 29 29 33 34 35 32 36 38 36 33 38 39
156 154 150 152 144 138 150 159 143 143 130 134 269 55 52 41 44 41 44 52 51 49 53 52 50 49 44 39 38 35 32 30 33 35 33 32 34 36 39 37 33 32 36
154 153 152 142 138 138 135 139 142 148 151 149 132 61 307 58 65 50 52 57 55 58 55 52 47 45 45 46 40 33 31 27 27 34 31 30 30 35 38 37 36 36 37
147 148 142 140 145 145 152 161 163 163 157 140 132 118 46 97 85 65 56 66 64 60 63 60 52 49 46 43 43 41 41 34 28 30 28 30 27 37 39 36 34 33 31
152 152 152 154 160 166 174 174 172 173 158 157 149 148 121 107 114 101 80 68 74 75 72 73 62 56 49 48 48 46 46 42 34 26 28 29 28 34 33 36 35 36 32
159 163 163 171 175 181 184 181 177 178 175 162 155 161 166 77 128 122 111 88 87 84 86 89 82 66 57 56 61 61 55 43 31 24 25 29 32 34 33 34 36 34 33
168 172 176 179 185 187 186 189 185 185 184 173 173 172 185 177 153 154 152 147 128 114 96 109 103 91 68 69 78 76 68 45 21 21 25 30 34 35 35 34 36 38 36
172 180 186 190 188 189 193 196 194 191 187 189 182 182 186 184 177 173 174 168 158 153 147 140 139 135 114 94 87 87 76 53 34 29 22 39 50 39 39 39 31 36 34
175 181 188 193 193 193 196 201 201 197 197 196 191 188 191 193 192 193 188 187 187 185 186 181 181 174 172 159 147 136 112 66 33 23 25 41 59 42 35 32 28 35 28
182 185 188 191 196 194 198 203 208 203 204 200 197 198 199 201 199 199 199 197 200 201 201 200 197 192 194 202 200 186 175 176 184 359 27 52 60 44 29 19 12 35 23